Weather in Suday

Russia / Kostroma Oblast     58°58′42″N   43°07′48″E
temp.,
°C
wind,
m/s
gust,
m/s
humid.,
%
clouds,
%
prec.,
mm/h
press.,
hPa
HPBL,
m
21 june, mon
mon2100:00+19wsw2579100 0.0 101977
03:00+17wsw22840 0.0 101935
06:00+21wsw25770 0.0 1019181
09:00+27wsw34540 0.0 1019743
12:00+30w33400 0.0 10192133
15:00+31w34355 0.0 10182550
18:00+30w244827 0.0 1018226
21:00+24wnw117086 0.0 101916
22 june, tue
tue2200:00+21wsw22760 0.0 102023
03:00+19w23807 0.0 102056
06:00+23wsw24765 0.0 1020165
09:00+28w235594 0.0 1020851
12:00+31wsw233933 0.0 10202535
15:00+31wsw344192 0.0 10191009
18:00+28nw585499 0.0 1019617
21:00+20sw227642 0.0 102031
23 june, wed
wed2300:00+19wsw2285100 0.1 102025
03:00+18w119145 0.1 102011
06:00+22wsw23785 0.0 1020158
09:00+28w23545 0.0 1020702
12:00+31w23395 0.0 10191863
15:00+33wnw23345 0.0 10192482
18:00+32nnw114819 0.0 1018224
21:00+25w22680 0.0 101732
24 june, thu
thu2400:00+21wsw22734 0.0 101828
03:00+19w22815 0.0 101929
06:00+22sw2575100 0.0 1018144
09:00+28w2452100 0.0 1018542
12:00+32w3538100 0.0 10171599
15:00+33w3431100 0.0 10162482
18:00+31wsw2448100 0.0 1015156
21:00+24wsw227194 0.0 101441
25 june, fri
fri2500:00+22wnw4127235 0.1 1016464
03:00+18sw009273 0.1 101511
06:00+21nw2577100 0.0 1015205
09:00+26wnw355390 0.0 1015802
12:00+29wnw35458 0.0 10151595
15:00+30wnw344298 0.0 10132470
18:00+22n488054 0.7 1014421
21:00+19nnw25925 0.8 1014176